This is the latest recevied weather packets stored in our database for station/object W5ALL-WX. If no packets are shown the sender has not sent any weather packets the latest 1 day(s).
| Time | Temp. | Humidity | Pressure | Rain* | Wind** | Luminosity | Snow |
|---|---|---|---|---|---|---|---|
| 1778053332 | 16.11° C | 35% | 1012.7 hPa | 0 mm | 1.79 m/s, 176° | - | - |
| 1778053032 | 16.11° C | 35% | 1012.6 hPa | 0 mm | 1.79 m/s, 177° | - | - |
| 1778052732 | 16.11° C | 35% | 1012.6 hPa | 0 mm | 1.79 m/s, 170° | - | - |
| 1778052432 | 16.11° C | 35% | 1012.6 hPa | 0 mm | 1.79 m/s, 145° | - | - |
| 1778052132 | 16.11° C | 34% | 1012.5 hPa | 0 mm | 2.24 m/s, 152° | - | - |
| 1778051832 | 16.67° C | 33% | 1012.5 hPa | 0 mm | 2.24 m/s, 177° | - | - |
| 1778051532 | 16.67° C | 33% | 1012.5 hPa | 0 mm | 2.24 m/s, 190° | - | - |
| 1778051232 | 16.67° C | 33% | 1012.6 hPa | 0 mm | 1.79 m/s, 187° | - | - |
| 1778050932 | 16.67° C | 33% | 1012.5 hPa | 0 mm | 1.34 m/s, 231° | - | - |
| 1778050632 | 16.67° C | 32% | 1012.5 hPa | 0 mm | 0 m/s | - | - |
| 1778050332 | 17.22° C | 31% | 1012.4 hPa | 0 mm | 0.45 m/s, 195° | - | - |
| 1778050032 | 17.22° C | 31% | 1012.2 hPa | 0 mm | 2.68 m/s, 193° | - | - |
| 1778049732 | 17.22° C | 31% | 1012.2 hPa | 0 mm | 2.68 m/s, 188° | - | - |
| 1778049432 | 17.22° C | 31% | 1012.2 hPa | 0 mm | 3.13 m/s, 187° | - | - |
| 1778049132 | 17.22° C | 30% | 1012.1 hPa | 0 mm | 2.68 m/s, 166° | - | - |
| 1778048832 | 17.78° C | 30% | 1012.1 hPa | 0 mm | 3.13 m/s, 194° | - | - |
| 1778048532 | 17.22° C | 30% | 1012 hPa | 0 mm | 3.13 m/s, 167° | - | - |
| 1778048232 | 17.22° C | 31% | 1012 hPa | 0 mm | 1.79 m/s, 146° | - | - |
| 1778047931 | 17.22° C | 31% | 1011.9 hPa | 0 mm | 2.24 m/s, 191° | - | - |
| 1778047631 | 17.22° C | 30% | 1011.9 hPa | 0 mm | 2.68 m/s, 203° | - | - |
| 1778047331 | 17.78° C | 30% | 1011.9 hPa | 0 mm | 2.68 m/s, 194° | - | - |
| 1778047031 | 17.78° C | 30% | 1011.9 hPa | 0 mm | 2.24 m/s, 207° | - | - |
| 1778046731 | 17.78° C | 30% | 1011.8 hPa | 0 mm | 3.58 m/s, 195° | - | - |
| 1778046431 | 17.78° C | 29% | 1011.8 hPa | 0 mm | 3.13 m/s, 215° | - | - |
| 1778046131 | 18.33° C | 29% | 1011.7 hPa | 0 mm | 2.68 m/s, 218° | - | - |
* Rain latest hour (hover to see other rain measurements)
** Current wind speed in m/s (hover to see current wind gust speed)